Location: Unspecified
(48.8656°N, 0.0000°E)
Time: 03:58:06
(UTC+00:00)

A-11 Canister half - All Passes

Search period start: 20 June 2019 00:00
Search period end: 30 June 2019 00:00
Orbit: 1516 x 1684 km, 47.2° (Epoch: 19 June)

Date Brightness Start Highest point End Pass type
(mag) Time Alt. Az. Time Alt. Az. Time Alt. Az.
20 Jun - 10:12:57 10° SSW 10:21:35 35° SE 10:30:00 10° ENE daylight
20 Jun - 12:15:47 10° WSW 12:25:34 70° SSE 12:35:01 10° E daylight
20 Jun - 14:20:37 10° W 14:30:22 82° S 14:39:47 10° E daylight
20 Jun - 16:25:39 10° WNW 16:34:53 56° SSW 16:43:51 10° SE daylight
20 Jun - 18:31:33 10° W 18:38:10 22° SW 18:44:43 10° S daylight
21 Jun - 09:50:13 10° SSW 09:58:44 33° SE 10:07:02 10° E daylight
21 Jun - 11:52:52 10° WSW 12:02:40 68° SSE 12:12:07 10° E daylight
21 Jun - 13:57:40 10° W 14:07:27 82° S 14:16:53 10° E daylight
21 Jun - 16:02:42 10° WNW 16:12:01 58° SSW 16:21:03 10° SE daylight
21 Jun - 18:08:28 10° W 18:15:23 24° SW 18:22:13 10° S daylight
22 Jun - 09:27:30 10° SSW 09:35:54 32° SE 09:44:04 10° E daylight
22 Jun - 11:29:57 10° WSW 11:39:46 66° SSE 11:49:13 10° E daylight
22 Jun - 13:34:42 10° W 13:44:32 82° S 13:54:00 10° E daylight
22 Jun - 15:39:45 10° WNW 15:49:08 60° SSW 15:58:14 10° SE daylight
22 Jun - 17:45:24 10° W 17:52:36 25° SW 17:59:40 10° S daylight
23 Jun - 09:04:49 10° SSW 09:13:03 30° SE 09:21:05 10° E daylight
23 Jun - 11:07:03 10° SW 11:16:51 65° SSE 11:26:19 10° E daylight
23 Jun - 13:11:45 10° W 13:21:37 82° S 13:31:07 10° E daylight
23 Jun - 15:16:48 10° WNW 15:26:16 62° SSW 15:35:24 10° SE daylight
23 Jun - 17:22:22 10° W 17:29:47 27° SW 17:37:05 10° S daylight
24 Jun - 08:42:09 10° S 08:50:13 29° SE 08:58:06 10° E daylight
24 Jun - 10:44:09 10° SW 10:53:57 63° SSE 11:03:26 10° ENE daylight
24 Jun - 12:48:48 10° W 12:58:41 82° S 13:08:12 10° E daylight
24 Jun - 14:53:51 10° WNW 15:03:23 64° SSW 15:12:35 10° SE daylight
24 Jun - 16:59:19 10° W 17:06:59 29° SW 17:14:29 10° S daylight
25 Jun - 08:19:30 10° S 08:27:23 27° SE 08:35:05 10° E daylight
25 Jun - 10:21:17 10° SW 10:31:03 61° SSE 10:40:31 10° ENE daylight
25 Jun - 12:25:50 10° W 12:35:45 82° S 12:45:18 10° E daylight
25 Jun - 14:30:54 10° W 14:40:30 66° SSW 14:49:44 10° ESE daylight
25 Jun - 16:36:18 10° W 16:44:11 30° SW 16:51:53 10° SSE daylight
26 Jun - 07:56:52 10° S 08:04:33 26° SE 08:12:04 10° E daylight
26 Jun - 09:58:23 10° SW 10:08:09 59° SSE 10:17:36 10° ENE daylight
26 Jun - 12:02:52 10° W 12:12:49 82° S 12:22:24 10° E daylight
26 Jun - 14:07:57 10° W 14:17:36 68° SSW 14:26:54 10° ESE daylight
26 Jun - 16:13:18 10° W 16:21:22 32° SW 16:29:14 10° SSE daylight
27 Jun - 07:34:17 10° S 07:41:43 24° SE 07:49:01 10° E daylight
27 Jun - 09:35:31 10° SW 09:45:15 57° SSE 09:54:42 10° ENE daylight
27 Jun - 11:39:55 10° W 11:49:53 82° S 11:59:30 10° E daylight
27 Jun - 13:45:00 10° W 13:54:42 69° SSW 14:04:02 10° ESE daylight
27 Jun - 15:50:17 10° WNW 15:58:33 34° SW 16:06:35 10° SSE daylight
28 Jun - 07:11:43 10° S 07:18:54 23° SE 07:25:58 10° E daylight
28 Jun - 09:12:38 10° SW 09:22:21 55° SSE 09:31:47 10° ENE daylight
28 Jun - 11:16:57 10° W 11:26:57 81° S 11:36:36 10° E daylight
28 Jun - 13:22:02 10° W 13:31:48 71° SSW 13:41:11 10° ESE daylight
28 Jun - 15:27:17 10° WNW 15:35:43 36° SW 15:43:55 10° SSE daylight
29 Jun - 06:49:11 10° S 06:56:04 21° SE 07:02:52 10° E daylight
29 Jun - 08:49:47 10° SW 08:59:27 54° SSE 09:08:51 10° ENE daylight
29 Jun - 10:53:59 10° WSW 11:04:01 81° S 11:13:42 10° E daylight
29 Jun - 12:59:04 10° W 13:08:53 73° SSW 13:18:20 10° ESE daylight
29 Jun - 15:04:17 10° WNW 15:12:53 38° SW 15:21:14 10° SSE daylight
